Flag for Saint Vincent and Grenadines Weather past 2 weeks in Kingstown, Saint Vincent and Grenadines

Now
86 °F

Broken clouds.


Feels Like: 93 °F
Forecast: 79 / 84 °F
Wind: 7 mph from Southeast

Location: Arnos Vale

Current Time: Aug 21, 2014 at 2:19:21 PM

Latest Report: Aug 21, 2014 at 2:00 PM


Visibility: N/A

Pressure: 29.89 "Hg

Humidity: 66%

Dew point: 73 °F

Location of KingstownLocation

Historic Weather in Kingstown — Graph

°F

Kingstown temperature yesterday

Maximum temperature yesterday: 88 °F (at 10:00 AM)
Minimum temperature yesterday: 81 °F (at 6:00 AM)
Average temperature yesterday: 83 °F

Past Weeks' High & Low Weather Summary

 TemperatureHumidityPressure
High88 °F (Aug 9, 1:00 PM)94% (Aug 7, 9:00 PM)30.09 "Hg (Aug 7, 9:00 PM)
Low75 °F (Aug 8, 1:00 PM)22% (Aug 7, 1:00 PM)29.89 "Hg (Aug 18, 3:00 PM)
Average83 °F77%29.98 "Hg
* Reported Aug 6 1:00 PM — Aug 21 1:00 PM, Kingstown, Weather by CustomWeather, © 2014

Note: Actual official high and low records may vary slightly from our data, if they occured in-between our weather recording intervals... More about our weather records

Advertising

Kingstown weather history for previous 24 hours

 ConditionsComfort  
Time TempWeatherWind HumidityBarometerVisibility
1:00 PM
Aug 21
86 °FPartly sunny.10 mph75%29.92 "HgN/A
12:00 PM86 °FBroken clouds.12 mph66%29.95 "HgN/A
11:00 AM86 °FScattered clouds.12 mph70%29.95 "HgN/A
10:00 AM86 °FScattered clouds.12 mph75%29.95 "HgN/A
9:00 AM84 °FPartly sunny.12 mph70%29.95 "HgN/A
8:00 AM84 °FScattered clouds.3 mph74%29.92 "HgN/A
7:00 AM81 °FScattered clouds.No wind84%29.92 "HgN/A
6:00 AM79 °FScattered clouds.No wind89%29.92 "HgN/A
10:00 PM
Aug 20
81 °FPassing clouds.9 mph84%29.98 "HgN/A
9:00 PM81 °FPassing clouds.7 mph84%29.98 "HgN/A
8:00 PM81 °FPartly cloudy.No wind84%29.95 "HgN/A
7:00 PM81 °FPassing clouds.6 mph84%29.95 "HgN/A
6:00 PM82 °FSprinkles. Broken clouds.6 mph74%29.95 "HgN/A
5:00 PM81 °FPartly sunny.9 mph79%29.92 "HgN/A
4:00 PM82 °FSprinkles. Partly sunny.12 mph74%29.92 "HgN/A
3:00 PM88 °FSprinkles. Partly sunny.14 mph66%29.92 "HgN/A
2:00 PM86 °FScattered clouds.14 mph66%29.95 "HgN/A
Weather by CustomWeather, © 2014

See weather overviewHow to use our weather pages